Regional Weather Roundup
Issued by NWS

Home | Current Version | Previous Version | Graphics & Text | Print | Product List | Glossary On
Versions: 1 2 3 4 5 6 7 8 9 10 11 12 13 14 15 16 17 18 19 20 21 22 23 24 25 26 27 28 29 30 31 32 33 34 35 36 37 38 39 40 41 42 43 44 45 46 47 48 49 50
554
ASUS43 KTOP 092208
RWRKS

WEATHER ROUNDUP FOR KANSAS
NATIONAL WEATHER SERVICE GOODLAND KS
400 PM CST TUE FEB 09 2016

NOTE:  "FAIR" INDICATES FEW OR NO CLOUDS BELOW 12,000 FEET WITH NO
SIGNIFICANT WEATHER AND/OR OBSTRUCTIONS TO VISIBILITY.

KSZ001>006-013>018-027>032-041>047-092300-
NORTHWEST KANSAS

CITY           SKY/WX    TMP DP  RH WIND       PRES   REMARKS
GOODLAND       SUNNY     48  31  51 NW10      30.23S
HAYS           CLOUDY    36  16  44 N12       30.29R WCI  27
HILL CITY      CLOUDY    38  21  50 NW6       30.28S
RUSSELL        CLOUDY    34  20  56 N10       30.28S WCI  26
$$

KSZ061>065-074>080-084>089-092300-
SOUTHWEST KANSAS

CITY           SKY/WX    TMP DP  RH WIND       PRES   REMARKS
DODGE CITY     MOSUNNY   45  20  36 N10       30.27R
ELKHART          N/A     60  26  27 NW14        N/A
GARDEN CITY    SUNNY     51  26  37 N13       30.24S
GREAT BEND     CLOUDY    39  19  45 N12       30.29R WCI  32
LIBERAL        PTSUNNY   59  28  31 N17       30.26R
PRATT          SUNNY     40  17  38 N16       30.28R WCI  32
$$

KSZ066>073-081>083-090>101-092300-
SOUTHEAST KANSAS

CITY           SKY/WX    TMP DP  RH WIND       PRES   REMARKS
CHANUTE        CLOUDY    37   7  28 NW16G25   30.23R WCI  28
COFFEYVILLE    SUNNY     40   8  26 N29G35    30.24R WCI  29
HUTCHINSON     CLOUDY    39  17  41 NW16      30.28R WCI  30
MEDICINE LODGE   N/A     47  19  33 N16G25    30.28R
NEWTON         SUNNY     37  12  35 N20G25    30.28R WCI  27
PARSONS        CLOUDY    40   9  28 NW17G26   30.23R WCI  31
WICHITA INTL   MOSUNNY   42  16  34 N21G26    30.27R
WICHITA JABRA  SUNNY     40  15  36 N21G28    30.26S WCI  30
WICHITA MCCONL SUNNY     40  15  37 N15G22    30.26R WCI  31
WINFIELD       SUNNY     43  15  32 N20G31    30.28R
$$

KSZ007>012-019>026-033>040-048>060-102>105-092300-
NORTHEAST KANSAS

CITY           SKY/WX    TMP DP  RH WIND       PRES   REMARKS
CONCORDIA      SUNNY     30  10  43 N15       30.30R WCI  19
EMPORIA        SUNNY     34   7  32 N22G30    30.24S WCI  22
LAWRENCE       SUNNY     29   2  31 N22G30    30.24R WCI  15
MANHATTAN      SUNNY     31   7  36 N9G24     30.31R
MARYSVILLE     SUNNY     30  10  43 N15       30.28R WCI  19
OLATHE IND     SUNNY     28   3  34 NW20G30   30.22R WCI  15
OLATHE EXE     SUNNY     27   3  35 NW20      30.20R WCI  13
SALINA         CLOUDY    35  12  38 N21       30.31R WCI  24
TOPEKA BILLARD SUNNY     30   1  29 NW23G30   30.26R WCI  17
TOPEKA FORBES  SUNNY     31   3  30 NW23      30.24R WCI  18
$$




USA.gov is the U.S. government's official web portal to all federal, state and local government web resources and services.